星链-32156 (STARLINK-32156)

导读 | 豆包AI

STARLINK-32156是美国太空探索技术公司(SpaceX)于2024年7月28日发射的Starlink(星链)卫星,属于星链全球卫星互联网星座的一员,部署在近地轨道运行。星链星座通过大规模低轨卫星组网,旨在为全球偏远、无传统网络覆盖区域提供低 latency、高速的宽带互联网服务。STARLINK-32156的入轨进一步扩充了星链星座规模,推动SpaceX全球卫星互联网组网进程,是星链星座持续部署、完善全球覆盖能力的重要组成部分。

基本信息
目录编号:
60278
目录名称:
STARLINK-32156
国际标识:
2024-132A
轨道中心:
EARTH
卫星名称:
星链-32156 (STARLINK-32156)
卫星全名:
星链-32156 (STARLINK-32156)
卫星状态:
在轨 (已飞行642 天)
发射日期:
2024-07-28 UTC
国别 :
美国 (US)
星等 :
--
轨道信息
数据来源 国际轨道数据
星历时间: 2026-04-30T18:22:14+0800
17小时前
查看轨道信息
半长轴: 6853.363km
偏心率: 0.000105
轨道倾角: 53.160°
近地点辐角 83.201°
升交点赤经 172.004°
平近点角 276.911°
近地点: 474.506km
远地点: 475.946km
周期: 94.106分钟
每日圈数: 15.301966
详细信息
卫星平台:
Starlink v2.0 mini
运营商:
太空探索技术公司
运营商所在国:
美国
制造商(研发单位):
太空探索技术公司
制造商所在国:
美国
使用方式:
暂无
卫星简介
星链(Starlink)计划是由太空探索技术公司(SpaceX)提出的一个巨型低轨卫星互联网星座项目,计划在2019年至2024年间在太空搭建由约1.2万颗卫星组成的“星链”网络,其中1584颗将部署在地球上空550千米处的近地轨道,并从2020年开始工作。该卫星仍在工作。
2D轨道图
3D轨道图
轨道高度分析图
轨道倾角分析图
轨道综合分析图
查看轨道综合分析图